Simultaneous Nadir Overpasses (SNOs) Predictions

Prediction of SNOs between AQUA and METOP-B Satellite Orbit:

Table of predicted SNOs for the next 14.0 days since TLE Epoch: 5/29/2015
Index Date (AQUA) Time (AQUA) Lat,Lon (AQUA) SZA (AQUA ) Date (METOP-B) Time (METOP-B) Lat,Lon (METOP-B) SZA (METOP-B ) Distance(km) Time Diff (sec)
1 05/29/2015 23:39:50 73.77, 179.60 52.06 05/29/2015 23:39:23 73.78, 179.69 52.07 2.97 27
2 05/30/2015 00:29:17 -73.84, -12.90 127.88 05/30/2015 00:30:04 -73.81, -12.91 127.91 3.62 47
3 06/01/2015 19:14:07 73.75,-113.92 51.64 06/01/2015 19:13:43 73.77,-113.90 51.67 2.73 24
4 06/01/2015 20:03:34 -73.81, 53.58 128.30 06/01/2015 20:04:24 -73.80, 53.49 128.32 2.98 50
5 06/04/2015 13:58:43 -73.08, 146.25 129.41 06/04/2015 13:57:37 -73.02, 143.48 129.38 90.12 66
6 06/04/2015 14:48:23 73.75, -47.49 51.29 06/04/2015 14:48:02 73.76, -47.51 51.31 1.78 21
7 06/04/2015 15:37:50 -73.81, 120.01 128.65 06/04/2015 15:38:42 -73.84, 120.01 128.63 3.42 52
8 06/07/2015 09:33:02 -73.21,-147.57 129.58 06/07/2015 09:31:54 -73.15,-149.81 129.55 72.22 68
9 06/07/2015 10:22:40 73.76, 18.89 51.01 06/07/2015 10:22:22 73.75, 18.87 51.00 2.11 18
10 06/07/2015 11:12:07 -73.83,-173.60 128.93 06/07/2015 11:13:02 -73.83,-173.61 128.93 0.20 55
11 06/10/2015 05:07:21 -73.35, -81.43 129.67 06/10/2015 05:06:11 -73.28, -83.10 129.67 53.57 70
12 06/10/2015 05:56:56 73.75, 85.35 50.76 06/10/2015 05:56:41 73.78, 85.36 50.78 2.80 15
13 06/10/2015 06:46:23 -73.81,-107.14 129.18 06/10/2015 06:47:22 -73.81,-107.23 129.19 2.82 59




NCC Satellite Simultaneous Nadir Overpasses (SNOs) Prediction Service
